Wind_Speed
12 12 12 12 13 13 13 13 13 13 12 12 12 13 13 13 13 13 13 13 13 13 12 13 13 13 13 13 13 13 13 13 13 14 13 14 14 14 15 15 16 16 16
12 12 12 12 13 13 13 13 13 13 13 12 11 12 12 13 13 12 13 13 13 13 13 14 13 14 13 13 12 12 13 13 13 14 14 14 14 15 15 16 16 17 17
13 12 12 12 13 13 13 13 13 12 12 12 12 11 11 11 11 11 12 13 13 13 13 13 13 14 14 13 13 13 13 14 14 14 14 14 15 15 16 16 16 17 17
12 12 12 11 12 11 12 11 11 12 12 12 12 12 11 11 11 12 12 12 13 13 13 13 14 14 14 14 13 13 13 13 13 14 14 14 15 16 16 16 17 18 18
11 11 11 12 12 12 11 11 11 11 11 12 12 12 12 12 12 12 12 13 13 13 14 14 13 14 14 14 14 14 14 14 14 14 15 15 16 16 16 16 17 17 18
12 12 12 12 11 12 12 12 12 12 12 12 13 13 13 12 13 12 13 13 13 14 14 14 14 14 15 15 15 15 15 15 15 15 16 16 17 17 17 16 17 17 18
12 12 13 13 12 13 14 13 13 13 13 13 13 13 13 13 14 14 14 14 14 14 14 14 14 14 14 15 15 15 15 16 16 16 16 17 17 18 18 18 18 18 18
13 13 13 14 14 14 14 14 13 13 13 13 13 14 14 14 14 14 14 14 14 14 14 14 14 14 14 14 14 15 15 16 16 16 16 16 17 18 18 19 19 19 20
13 13 13 13 13 14 13 13 13 13 12 12 13 13 13 14 15 15 15 15 15 15 15 15 15 14 15 15 14 15 15 15 16 16 17 17 18 19 18 19 19 19 20
13 13 14 14 14 14 14 14 13 12 12 12 13 13 14 14 15 15 16 16 16 16 17 17 16 16 16 15 15 16 16 16 16 17 17 17 17 18 19 19 19 20 20
14 14 13 14 14 14 14 14 14 13 13 13 13 14 14 15 15 16 16 16 17 17 17 17 17 17 16 16 16 16 16 17 17 18 18 18 18 18 19 20 20 20 20
15 15 15 14 14 14 14 14 14 14 14 14 14 15 15 15 16 16 16 17 17 17 17 17 16 16 16 17 17 16 16 16 17 17 17 18 18 19 19 20 20 19 19
15 15 15 15 15 15 15 15 15 15 15 15 15 15 15 16 16 17 17 17 17 17 17 17 17 16 16 17 17 17 17 16 17 17 18 18 18 18 19 20 20 20 19
15 15 15 16 16 16 15 16 16 16 15 16 16 16 17 17 17 17 17 17 17 17 17 17 17 17 17 17 17 18 18 18 18 18 19 19 19 19 19 19 19 19 19
15 16 16 16 16 15 15 15 15 16 16 17 17 17 17 17 16 17 18 18 18 17 17 17 18 18 17 17 18 18 18 18 19 19 20 20 20 19 19 18 18 18 19
16 15 15 16 16 16 16 16 16 16 17 17 17 18 18 18 18 18 18 18 18 18 18 18 18 18 18 18 18 18 18 19 20 20 20 21 20 20 20 19 18 19 19
16 16 16 16 16 17 17 17 17 17 18 18 18 18 18 19 19 19 19 19 19 19 18 18 19 19 19 19 19 19 20 20 20 21 21 21 20 20 20 20 20 20 20
16 16 16 16 17 17 17 18 18 18 19 19 19 19 19 19 19 19 19 19 19 19 19 19 19 19 20 20 20 20 20 20 21 21 21 21 20 20 20 20 21 21 21
16 16 16 17 17 17 18 18 18 19 20 20 20 20 20 20 19 19 19 19 19 19 19 19 20 20 20 20 20 21 21 20 21 21 21 21 21 20 21 21 21 20 20
17 17 17 17 17 17 18 18 18 18 18 19 20 20 20 19 19 19 18 18 18 19 19 19 20 20 20 20 21 21 21 21 21 22 22 21 21 21 21 21 20 20 20
17 18 18 18 17 17 18 18 18 18 18 19 20 20 19 19 19 18 18 17 17 18 18 19 19 19 19 20 20 21 21 21 21 22 21 21 21 21 21 21 21 21 21
18 18 18 18 18 18 18 19 19 19 19 20 20 19 19 18 18 17 17 17 17 18 18 18 19 19 19 20 20 21 21 21 20 20 21 21 22 22 22 21 21 22 22
18 18 18 18 18 18 19 19 19 20 19 19 19 19 19 18 18 18 18 18 18 18 18 19 20 20 20 21 21 21 21 21 21 21 21 21 22 22 22 22 22 22 23
19 19 19 19 19 19 18 19 20 20 20 20 19 19 19 19 19 19 19 19 19 19 20 21 21 21 21 22 22 21 21 21 22 22 22 22 22 23 23 23 23 23 23
20 20 20 20 19 19 19 19 19 19 20 20 19 19 19 19 19 19 20 20 20 20 21 21 22 23 23 22 22 23 23 23 23 23 23 23 23 24 24 24 24 24 25
21 21 21 20 20 20 20 20 20 20 20 20 19 19 19 19 19 19 20 20 21 21 22 22 23 24 24 23 23 24 24 24 24 24 24 24 24 25 25 25 25 25 26
Wind_Direction
276 271 272 271 269 268 266 267 270 275 274 272 273 272 273 276 273 270 267 265 264 266 270 273 273 272 273 271 268 266 267 266 264 263 261 260 261 261 259 257 256 255 252
278 279 275 268 268 269 267 267 269 272 273 272 274 274 275 275 272 269 266 265 265 266 269 273 272 273 273 275 273 271 267 266 264 264 264 263 262 261 258 256 256 254 252
277 280 277 274 273 270 268 270 271 271 272 272 273 274 276 276 272 270 266 266 267 267 269 271 271 272 272 272 272 272 270 265 263 265 267 268 270 266 259 258 256 256 253
278 276 275 272 274 276 274 274 276 276 273 271 272 274 274 275 272 269 266 267 268 267 267 269 270 270 272 272 272 272 273 271 270 267 268 269 270 269 264 262 259 258 257
281 279 277 273 273 274 273 275 276 276 273 271 272 274 274 273 272 266 264 269 270 268 268 271 270 269 271 271 272 273 272 271 271 273 273 271 271 270 268 265 261 259 259
281 280 279 274 274 274 274 276 275 274 274 275 274 272 272 273 273 270 269 271 271 269 270 271 271 271 271 271 271 271 272 272 272 274 275 274 273 272 270 266 263 260 260
279 280 280 277 275 275 275 275 277 276 274 274 274 273 272 272 274 273 273 272 273 273 272 272 271 270 271 271 270 269 270 272 273 275 277 276 274 273 270 267 264 263 261
279 279 278 276 274 276 277 278 279 279 275 272 272 273 273 273 273 274 274 273 273 274 274 274 272 271 271 271 269 268 270 271 272 274 276 276 275 274 271 269 267 265 264
280 282 281 276 274 277 278 280 281 281 278 274 272 272 273 273 274 273 273 273 272 272 273 273 270 270 271 272 271 270 270 271 274 276 277 278 276 275 274 271 269 266 265
279 281 283 277 274 277 278 279 279 277 278 277 276 275 274 275 276 276 273 271 271 272 272 270 270 272 271 270 271 271 272 273 275 277 279 281 279 278 276 274 271 268 266
277 278 280 277 274 275 276 277 276 276 275 274 277 278 278 277 277 277 275 273 271 270 270 269 270 271 270 269 270 271 271 273 274 276 279 281 279 281 278 275 270 268 266
280 278 277 276 274 277 275 275 276 278 278 277 278 279 279 278 279 278 276 275 273 271 269 268 269 270 269 269 270 272 272 274 275 277 281 281 281 281 279 276 270 265 263
283 281 278 275 273 275 275 274 275 277 278 279 279 279 279 281 280 279 277 276 273 269 267 268 269 270 270 269 270 271 273 276 277 279 282 282 282 282 281 278 271 264 260
284 280 277 275 274 274 276 275 275 277 277 278 280 280 280 281 282 280 277 274 272 269 267 268 269 269 270 270 271 270 271 276 279 280 281 282 284 284 282 279 271 264 261
287 281 278 276 274 273 274 274 275 276 276 278 280 281 283 283 284 284 280 275 270 267 267 269 271 272 272 271 271 271 273 277 280 282 282 283 284 286 284 279 269 265 263
291 284 279 277 275 274 273 274 274 276 278 280 282 282 282 282 283 283 282 278 273 269 267 268 270 271 274 276 275 275 277 279 280 282 282 282 283 284 284 281 274 268 266
289 286 281 277 276 275 275 274 276 278 280 282 282 283 283 283 281 280 280 279 275 271 270 270 271 271 273 277 277 277 279 279 280 281 282 282 281 281 282 280 276 272 270
288 287 284 278 277 277 276 273 276 278 281 282 282 283 284 284 283 280 279 278 275 271 270 271 271 272 275 276 278 278 279 279 281 282 282 282 282 280 281 279 277 274 272
288 288 286 280 278 278 278 276 276 278 280 281 283 284 284 283 282 281 279 277 274 270 270 270 270 273 276 277 278 278 279 282 282 281 281 281 281 280 280 280 278 274 271
288 289 288 283 280 279 279 278 279 280 281 282 284 286 284 282 282 281 280 278 274 271 269 269 272 274 276 277 278 279 281 283 282 282 282 282 281 281 281 280 278 275 273
288 289 288 286 283 280 279 278 279 280 280 283 285 285 283 282 281 281 280 277 274 271 269 270 272 275 276 278 280 282 282 284 283 281 281 281 280 281 281 280 278 276 274
288 288 288 286 284 281 280 278 276 278 279 283 284 284 282 281 281 281 280 278 276 273 270 272 275 277 278 279 282 284 285 283 281 279 279 280 281 282 281 281 278 276 275
287 288 288 287 284 282 280 279 277 277 279 283 285 284 282 280 279 279 278 278 277 276 275 277 277 279 280 280 284 286 286 285 284 283 282 282 282 282 281 280 278 276 274
285 287 287 287 286 283 280 279 280 280 280 283 285 284 282 280 279 278 278 278 278 278 278 278 278 279 280 282 284 284 286 287 286 286 283 282 281 281 280 280 279 278 276
284 285 284 286 286 285 282 281 280 279 281 282 282 283 282 280 279 279 277 278 278 278 278 279 280 281 281 282 283 283 285 286 286 285 283 282 281 280 280 280 279 277 276
281 283 283 284 285 284 282 281 280 279 280 281 281 282 282 281 279 278 278 278 280 281 280 280 281 283 283 282 283 283 285 286 285 284 282 282 281 281 280 279 278 277 276
Height
5841 5841 5841 5840 5840 5840 5840 5840 5840 5840 5840 5840 5840 5840 5840 5840 5840 5840 5840 5841 5841 5841 5841 5841 5841 5841 5842 5841 5841 5841 5842 5842 5843 5843 5843 5843 5844 5844 5844 5845 5846 5846 5847
5838 5838 5838 5837 5837 5837 5837 5837 5837 5837 5837 5837 5837 5837 5837 5837 5837 5837 5837 5837 5838 5838 5838 5838 5838 5838 5839 5839 5839 5839 5839 5839 5840 5840 5840 5840 5840 5840 5840 5841 5841 5842 5843
5835 5835 5835 5834 5834 5834 5833 5833 5833 5834 5834 5834 5834 5834 5834 5834 5834 5834 5834 5834 5834 5835 5835 5835 5835 5835 5836 5836 5836 5836 5836 5836 5836 5836 5836 5836 5836 5836 5837 5837 5837 5838 5838
5832 5832 5832 5832 5831 5831 5830 5830 5830 5830 5830 5830 5831 5831 5831 5831 5831 5831 5831 5831 5831 5831 5832 5832 5832 5832 5833 5833 5833 5833 5833 5833 5833 5833 5833 5833 5833 5833 5833 5833 5833 5834 5834
5829 5829 5829 5828 5828 5828 5828 5827 5827 5827 5827 5827 5827 5827 5827 5827 5827 5827 5827 5828 5828 5828 5829 5829 5829 5829 5829 5829 5829 5830 5829 5830 5829 5829 5829 5829 5829 5829 5829 5829 5829 5829 5829
5826 5826 5826 5825 5825 5825 5824 5824 5824 5824 5824 5824 5824 5824 5824 5824 5824 5824 5824 5824 5825 5825 5825 5825 5825 5825 5826 5826 5826 5826 5826 5826 5826 5826 5826 5825 5825 5825 5825 5824 5824 5824 5825
5823 5823 5822 5822 5822 5822 5821 5821 5820 5820 5820 5820 5820 5820 5820 5820 5820 5820 5820 5821 5821 5821 5821 5821 5821 5822 5822 5822 5822 5822 5822 5822 5822 5822 5821 5821 5821 5820 5820 5820 5820 5820 5820
5820 5820 5819 5818 5818 5818 5818 5817 5816 5816 5816 5816 5816 5817 5817 5817 5817 5817 5817 5817 5817 5817 5817 5817 5818 5818 5818 5818 5818 5818 5818 5818 5818 5818 5817 5817 5816 5816 5815 5815 5815 5815 5815
5817 5816 5815 5815 5815 5814 5814 5813 5813 5812 5812 5812 5812 5813 5813 5813 5813 5813 5813 5813 5813 5813 5813 5813 5814 5814 5814 5814 5814 5814 5814 5814 5813 5813 5812 5812 5811 5811 5810 5810 5810 5810 5810
5813 5813 5812 5811 5811 5810 5810 5810 5809 5809 5808 5808 5808 5808 5809 5809 5809 5809 5809 5808 5809 5809 5809 5809 5809 5810 5810 5810 5810 5810 5810 5809 5809 5808 5808 5807 5806 5806 5805 5805 5805 5804 5804
5809 5809 5808 5807 5807 5806 5806 5806 5806 5805 5805 5804 5804 5804 5804 5804 5804 5804 5804 5804 5804 5804 5804 5804 5805 5805 5805 5805 5805 5805 5805 5805 5804 5804 5803 5803 5802 5801 5800 5799 5799 5799 5799
5805 5805 5804 5803 5803 5803 5802 5802 5802 5802 5801 5801 5801 5800 5800 5800 5799 5799 5799 5799 5799 5799 5799 5800 5800 5800 5800 5800 5801 5801 5800 5800 5800 5799 5799 5798 5797 5796 5794 5793 5793 5793 5793
5800 5800 5800 5799 5799 5799 5799 5798 5798 5798 5797 5797 5797 5796 5796 5795 5795 5795 5795 5795 5795 5795 5795 5795 5795 5795 5795 5796 5796 5796 5796 5796 5795 5794 5794 5793 5792 5790 5788 5786 5786 5787 5788
5796 5795 5795 5795 5795 5794 5794 5794 5794 5794 5793 5793 5792 5792 5791 5791 5790 5790 5790 5790 5790 5790 5790 5791 5791 5791 5791 5791 5791 5791 5791 5790 5790 5789 5789 5788 5786 5784 5782 5779 5778 5780 5782
5793 5791 5791 5790 5790 5790 5790 5790 5790 5789 5789 5788 5788 5787 5787 5786 5785 5785 5784 5784 5785 5785 5786 5786 5786 5785 5785 5785 5785 5785 5785 5785 5785 5784 5783 5782 5780 5779 5777 5774 5773 5775 5776
5788 5787 5786 5786 5786 5786 5785 5785 5785 5785 5785 5784 5783 5783 5782 5781 5781 5780 5779 5779 5779 5780 5780 5781 5781 5781 5780 5780 5780 5780 5780 5780 5779 5778 5777 5776 5775 5773 5772 5770 5769 5770 5771
5784 5783 5782 5781 5781 5781 5781 5781 5780 5780 5780 5779 5778 5778 5777 5776 5775 5774 5774 5773 5773 5774 5775 5775 5776 5776 5776 5775 5775 5775 5774 5774 5773 5772 5771 5770 5768 5767 5766 5766 5765 5765 5765
5780 5779 5778 5777 5776 5776 5776 5776 5775 5775 5775 5774 5773 5773 5771 5770 5769 5769 5768 5767 5768 5768 5769 5770 5770 5771 5770 5770 5770 5769 5768 5767 5766 5765 5764 5763 5762 5761 5760 5760 5759 5758 5758
5775 5774 5773 5772 5772 5771 5771 5771 5770 5770 5770 5769 5768 5767 5766 5765 5764 5763 5762 5762 5762 5762 5763 5764 5764 5765 5765 5764 5764 5763 5762 5761 5760 5759 5758 5757 5756 5755 5754 5753 5752 5752 5752
5771 5770 5768 5767 5767 5766 5766 5765 5765 5764 5764 5764 5763 5761 5760 5759 5758 5757 5757 5757 5757 5757 5757 5758 5759 5759 5759 5758 5758 5757 5756 5755 5754 5752 5751 5750 5749 5748 5748 5747 5746 5746 5745
5766 5765 5764 5762 5762 5761 5760 5760 5759 5759 5759 5758 5757 5756 5755 5754 5753 5752 5752 5751 5751 5752 5752 5753 5753 5753 5753 5752 5751 5751 5750 5749 5747 5746 5745 5744 5743 5742 5741 5740 5740 5739 5739
5761 5759 5758 5757 5756 5756 5755 5755 5754 5754 5753 5752 5751 5750 5750 5749 5748 5747 5747 5746 5747 5747 5747 5748 5748 5747 5747 5746 5745 5744 5743 5742 5741 5740 5739 5738 5736 5736 5735 5734 5733 5732 5732
5756 5754 5753 5752 5751 5750 5749 5749 5748 5748 5748 5747 5746 5745 5744 5744 5743 5742 5742 5742 5741 5741 5742 5742 5742 5742 5741 5740 5739 5738 5736 5735 5734 5733 5732 5731 5730 5728 5727 5727 5726 5725 5725
5750 5749 5748 5747 5746 5745 5744 5743 5743 5743 5742 5742 5741 5740 5739 5738 5738 5738 5737 5737 5736 5736 5736 5736 5736 5735 5734 5733 5732 5731 5729 5728 5727 5726 5725 5724 5723 5722 5721 5720 5718 5718 5717
5744 5743 5742 5741 5740 5739 5739 5738 5737 5737 5736 5736 5735 5734 5733 5733 5733 5732 5732 5731 5731 5730 5730 5729 5729 5728 5727 5726 5725 5724 5723 5722 5720 5719 5717 5716 5715 5714 5713 5712 5711 5710 5709
5738 5737 5736 5735 5735 5734 5733 5732 5732 5731 5731 5730 5729 5729 5728 5727 5726 5726 5726 5726 5725 5724 5724 5723 5722 5721 5720 5719 5718 5717 5715 5714 5712 5711 5710 5708 5707 5706 5705 5704 5702 5701 5700